Location: Austin
(30.3000°N, 97.7500°W)
Time: 01:24:54
(UTC-05:00)

Cosmos 2016 Rocket - Pass Details

Date: 15 May 2024
Orbit: 946 x 1000 km, 83.0° (Epoch: 19 May)

Event Time Altitude Azimuth Distance (km) Brightness Sun altitude
Rises 20:45:15 0° 358° (N) 3,685 7.4 -6.1°
Reaches altitude 10° 20:47:48 10° 2° (N) 2,741 6.7 -6.6°
Maximum altitude 20:54:02 64° 83° (E) 1,094 4.1 -7.8°
Drops below altitude 10° 21:00:18 10° 164° (SSE) 2,755 6.0 -9.0°
Sets 21:02:51 0° 167° (SSE) 3,704 6.6 -9.4°
